West Bend, WI

11:50 AM CDT on June 29, 2017 (GMT -0500)
West Bend Municipal

Weather History for KETB - June, 2013

Change the Weather History Date:

Friday, June 28, 2013

  Actual Average Record
Temperature  
Mean Temperature 68 °F -  
Max Temperature 75 °F 78 °F 98 °F (1931)
Min Temperature 62 °F 57 °F 42 °F (1925)
Cooling Degree Days 4    
Growing Degree Days 18 (Base 50)    
Moisture  
Dew Point 58 °F    
Average Humidity 73    
Maximum Humidity 88    
Minimum Humidity 50    
Precipitation  
Precipitation 0.31 in - - ()
Sea Level Pressure  
Sea Level Pressure 29.66 in    
Wind  
Wind Speed 6 mph (WNW)    
Max Wind Speed 15 mph    
Max Gust Speed 26 mph    
Visibility 10 miles    
Events Rain    
Averages and records for this station are not official NWS values.
T = Trace of Precipitation, MM = Missing Value Source: NWS Daily Summary

Daily Weather History Graph

Daily Weather History Graph

Search for Another Location

Airport or City:

Trip Planner

Search our weather history database for the weather conditions in past years. The results will help you decide how hot, cold, wet, or windy it might be!

Date:

Astronomy

Jun. 28, 2013 Rise Set
Actual Time 5:14 AM CDT 8:37 PM CDT
Civil Twilight 4:38 AM CDT 9:12 PM CDT
Nautical Twilight 3:52 AM CDT 9:59 PM CDT
Astronomical Twilight 2:54 AM CDT 10:57 PM CDT
Moon 11:53 PM CDT (6/28) 11:33 AM CDT (6/28)
Length of Visible Light 16h 34m
Length of Day
15h 22m
Waning Gibbous, 66% of the Moon is Illuminated
Jun 28
Waning Gibbous
Jun 29
Last Quarter
Jul 8
New
Jul 15
First Quarter
Jul 22
Full

Hourly Weather History & Observations

Time (CDT) Temp. Dew Point Humidity Pressure Visibility Wind Dir Wind Speed Gust Speed Precip Events Conditions
12:15 AM 62.6 °F 59.0 °F 88% 29.71 in 10.0 mi SW 3.5 mph - N/A   Clear
12:35 AM 62.6 °F 59.0 °F 88% 29.71 in 10.0 mi Calm Calm - N/A   Scattered Clouds
12:55 AM 62.6 °F 59.0 °F 88% 29.70 in 10.0 mi Calm Calm - N/A   Scattered Clouds
1:15 AM 62.6 °F 59.0 °F 88% 29.70 in 10.0 mi Calm Calm - N/A   Clear
1:35 AM 62.6 °F 59.0 °F 88% 29.70 in 10.0 mi Calm Calm - N/A   Clear
1:55 AM 62.6 °F 59.0 °F 88% 29.70 in 10.0 mi Calm Calm - N/A   Clear
2:15 AM 62.6 °F 59.0 °F 88% 29.70 in 10.0 mi Calm Calm - N/A   Clear
2:35 AM 62.6 °F 59.0 °F 88% 29.69 in 10.0 mi Calm Calm - N/A   Clear
2:55 AM 62.6 °F 59.0 °F 88% 29.69 in 10.0 mi West 3.5 mph - N/A   Scattered Clouds
3:15 AM 64.4 °F 59.0 °F 83% 29.68 in 10.0 mi Calm Calm - N/A   Mostly Cloudy
3:35 AM 62.6 °F 59.0 °F 88% 29.68 in 10.0 mi Calm Calm - N/A   Scattered Clouds
3:55 AM 64.4 °F 59.0 °F 83% 29.68 in 10.0 mi West 4.6 mph - N/A   Clear
4:15 AM 64.4 °F 59.0 °F 83% 29.68 in 10.0 mi West 6.9 mph - N/A   Clear
4:35 AM 64.4 °F 59.0 °F 83% 29.68 in 10.0 mi West 4.6 mph - N/A   Clear
4:55 AM 64.4 °F 59.0 °F 83% 29.68 in 10.0 mi West 6.9 mph - N/A   Scattered Clouds
5:15 AM 64.4 °F 59.0 °F 83% 29.68 in 10.0 mi West 6.9 mph - N/A   Mostly Cloudy
5:35 AM 64.4 °F 59.0 °F 83% 29.68 in 10.0 mi West 9.2 mph - N/A   Overcast
5:55 AM 66.2 °F 57.2 °F 73% 29.68 in 10.0 mi West 13.8 mph 19.6 mph N/A   Overcast
6:15 AM 64.4 °F 57.2 °F 77% 29.68 in 10.0 mi WNW 15.0 mph 20.7 mph N/A Rain Rain
6:35 AM 64.4 °F 57.2 °F 77% 29.68 in 10.0 mi WNW 9.2 mph - 0.01 in Rain Light Rain
6:55 AM 64.4 °F 57.2 °F 77% 29.67 in 10.0 mi WNW 8.1 mph - 0.01 in   Mostly Cloudy
7:55 AM 68.0 °F 57.2 °F 68% 29.67 in 10.0 mi West 12.7 mph 17.3 mph N/A   Clear
8:15 AM 68.0 °F 57.2 °F 68% 29.67 in 10.0 mi WNW 13.8 mph - N/A   Clear
8:35 AM 69.8 °F 57.2 °F 64% 29.67 in 10.0 mi WNW 8.1 mph 16.1 mph N/A   Clear
8:55 AM 69.8 °F 57.2 °F 64% 29.67 in 10.0 mi WNW 10.4 mph - N/A   Clear
9:15 AM 69.8 °F 57.2 °F 64% 29.66 in 10.0 mi NW 13.8 mph 18.4 mph N/A   Clear
9:35 AM 71.6 °F 57.2 °F 60% 29.65 in 10.0 mi WNW 10.4 mph - N/A   Clear
9:55 AM 71.6 °F 55.4 °F 57% 29.65 in 10.0 mi WNW 13.8 mph 20.7 mph N/A   Clear
10:15 AM 71.6 °F 57.2 °F 60% 29.65 in 10.0 mi NW 11.5 mph 17.3 mph N/A   Clear
10:35 AM 73.4 °F 57.2 °F 57% 29.65 in 10.0 mi WNW 13.8 mph 19.6 mph N/A   Clear
10:55 AM 73.4 °F 57.2 °F 57% 29.65 in 10.0 mi West 10.4 mph - N/A   Scattered Clouds
11:15 AM 73.4 °F 57.2 °F 57% 29.65 in 10.0 mi West 9.2 mph - N/A   Mostly Cloudy
11:35 AM 73.4 °F 55.4 °F 53% 29.66 in 10.0 mi West 10.4 mph 19.6 mph N/A   Mostly Cloudy
11:55 AM 73.4 °F 55.4 °F 53% 29.65 in 10.0 mi West 8.1 mph - N/A   Mostly Cloudy
12:15 PM 75.2 °F 55.4 °F 50% 29.65 in 10.0 mi WNW 13.8 mph 23.0 mph N/A   Mostly Cloudy
12:35 PM 73.4 °F 55.4 °F 53% 29.64 in 10.0 mi West 12.7 mph 20.7 mph N/A   Scattered Clouds
12:55 PM 75.2 °F 55.4 °F 50% 29.64 in 10.0 mi West 13.8 mph 23.0 mph N/A   Scattered Clouds
1:15 PM 73.4 °F 55.4 °F 53% 29.64 in 10.0 mi WNW 15.0 mph 26.5 mph N/A   Mostly Cloudy
1:35 PM 69.8 °F 59.0 °F 68% 29.64 in 10.0 mi NW 11.5 mph 16.1 mph N/A   Overcast
1:55 PM 69.8 °F 59.0 °F 68% 29.64 in 10.0 mi NW 8.1 mph - N/A   Overcast
2:15 PM 73.4 °F 57.2 °F 57% 29.63 in 10.0 mi NW 8.1 mph 17.3 mph N/A   Mostly Cloudy
2:35 PM 73.4 °F 59.0 °F 61% 29.62 in 10.0 mi WNW 11.5 mph - N/A   Overcast
2:55 PM 73.4 °F 55.4 °F 53% 29.62 in 10.0 mi WNW 10.4 mph 18.4 mph N/A   Mostly Cloudy
3:15 PM 75.2 °F 57.2 °F 53% 29.61 in 10.0 mi WNW 10.4 mph 16.1 mph N/A   Mostly Cloudy
3:35 PM 73.4 °F 57.2 °F 57% 29.61 in 10.0 mi NW 15.0 mph 20.7 mph N/A   Overcast
3:55 PM 73.4 °F 59.0 °F 61% 29.61 in 10.0 mi NW 11.5 mph 17.3 mph N/A   Overcast
4:15 PM 73.4 °F 57.2 °F 57% 29.61 in 10.0 mi WNW 12.7 mph - N/A   Overcast
4:35 PM 73.4 °F 59.0 °F 61% 29.61 in 10.0 mi WNW 10.4 mph 16.1 mph N/A   Overcast
4:55 PM 71.6 °F 59.0 °F 64% 29.62 in 10.0 mi West 11.5 mph - N/A   Mostly Cloudy
5:15 PM 73.4 °F 59.0 °F 61% 29.62 in 10.0 mi West 11.5 mph - N/A   Mostly Cloudy
5:35 PM 71.6 °F 59.0 °F 64% 29.62 in 10.0 mi West 9.2 mph - N/A   Mostly Cloudy
5:55 PM 71.6 °F 59.0 °F 64% 29.62 in 10.0 mi NW 4.6 mph - N/A   Overcast
6:15 PM 71.6 °F 59.0 °F 64% 29.62 in 10.0 mi NNW 10.4 mph - N/A   Overcast
6:35 PM 69.8 °F 59.0 °F 68% 29.62 in 10.0 mi WNW 11.5 mph 23.0 mph N/A   Mostly Cloudy
7:15 PM 64.4 °F 59.0 °F 83% 29.64 in 1.0 mi ENE 9.2 mph 17.3 mph 0.13 in Rain Heavy Rain
7:35 PM 62.6 °F 59.0 °F 88% 29.65 in 10.0 mi ENE 5.8 mph - 0.25 in   Mostly Cloudy
7:55 PM 62.6 °F 59.0 °F 88% 29.64 in 10.0 mi ENE 5.8 mph - 0.28 in   Mostly Cloudy
8:15 PM 62.6 °F 59.0 °F 88% 29.65 in 10.0 mi North 3.5 mph - N/A Rain Light Rain
8:35 PM 62.6 °F 59.0 °F 88% 29.65 in 10.0 mi Calm Calm - 0.02 in Rain Light Rain
8:55 PM 62.6 °F 59.0 °F 88% 29.65 in 10.0 mi Calm Calm - 0.02 in   Light Drizzle
9:15 PM 62.6 °F 59.0 °F 88% 29.66 in 10.0 mi Calm Calm - N/A   Overcast
9:35 PM 62.6 °F 59.0 °F 88% 29.66 in 10.0 mi NNE 3.5 mph - N/A   Overcast
9:55 PM 62.6 °F 59.0 °F 88% 29.66 in 10.0 mi North 3.5 mph - N/A   Overcast
10:15 PM 62.6 °F 59.0 °F 88% 29.66 in 10.0 mi North 3.5 mph - N/A   Mostly Cloudy
10:35 PM 62.6 °F 59.0 °F 88% 29.66 in 10.0 mi North 3.5 mph - N/A   Overcast
10:55 PM 62.6 °F 59.0 °F 88% 29.65 in 10.0 mi Calm Calm - N/A   Overcast
11:15 PM 62.6 °F 59.0 °F 88% 29.65 in 10.0 mi Calm Calm - N/A   Overcast
11:55 PM 62.6 °F 59.0 °F 88% 29.65 in 10.0 mi Calm Calm - N/A   Overcast